Time,TemperatureF,DewpointF,PressureIn,WindDirection,WindDirectionDegrees,WindSpeedMPH,WindSpeedGustMPH,Humidity,HourlyPrecipIn,Conditions,Clouds,dailyrainin,SoftwareType,DateUTC
2013-04-15 00:00:00,63.1,34.3,30.03,East,95,3.9,4.8,34,0.00,,OVC090,0.00,VWS V14.00,2013-04-15 04:00:00,
2013-04-15 00:06:00,62.9,34.2,30.03,ENE,73,3.4,4.8,34,0.00,,-RA,0.00,VWS V14.00,2013-04-15 04:06:00,
2013-04-15 00:11:00,62.7,34.0,30.03,SSW,201,7.4,8.1,34,0.00,,-RA,0.00,VWS V14.00,2013-04-15 04:11:00,
2013-04-15 00:16:00,63.7,34.0,30.03,SSW,200,3.4,10.5,33,0.00,,-RA,0.00,VWS V14.00,2013-04-15 04:16:00,
2013-04-15 00:21:00,63.3,34.5,30.03,SSW,200,5.4,7.0,34,0.00,,-RA,0.00,VWS V14.00,2013-04-15 04:21:00,
2013-04-15 00:26:00,63.5,33.9,30.03,SSW,213,3.9,7.0,33,0.00,,-RA,0.00,VWS V14.00,2013-04-15 04:26:00,
2013-04-15 00:31:00,63.3,34.5,30.03,SSW,200,6.9,9.7,34,0.00,,-RA,0.00,VWS V14.00,2013-04-15 04:31:00,
2013-04-15 00:36:00,63.1,34.3,30.06,SSW,198,6.9,11.0,34,0.00,,-RA,0.00,VWS V14.00,2013-04-15 04:36:00,
2013-04-15 00:41:00,62.9,34.2,30.06,South,191,4.4,6.4,34,0.00,,-RA,0.00,VWS V14.00,2013-04-15 04:41:00,
2013-04-15 00:46:00,62.9,34.2,30.06,South,179,9.1,13.2,34,0.00,,-RA,0.00,VWS V14.00,2013-04-15 04:46:00,
2013-04-15 00:51:00,62.5,34.5,30.06,SW,233,8.4,9.1,35,0.00,,-RA,0.00,VWS V14.00,2013-04-15 04:51:00,
2013-04-15 00:57:00,62.2,34.9,30.06,South,189,3.9,9.9,36,0.00,,-RA,0.00,VWS V14.00,2013-04-15 04:57:00,
2013-04-15 01:02:00,61.8,35.3,30.06,SE,137,0.0,4.3,37,0.00,,-RA,0.00,VWS V14.00,2013-04-15 05:02:00,
2013-04-15 01:07:00,61.4,35.6,30.06,SSE,155,4.4,7.0,38,0.00,,-RA,0.00,VWS V14.00,2013-04-15 05:07:00,
2013-04-15 01:12:00,61.4,35.6,30.06,SSW,192,4.4,5.9,38,0.00,,-RA,0.00,VWS V14.00,2013-04-15 05:12:00,
2013-04-15 01:17:00,61.2,35.5,30.06,SSW,196,5.9,9.1,38,0.00,,-RA,0.00,VWS V14.00,2013-04-15 05:17:00,
2013-04-15 01:22:00,61.1,36.0,30.06,SSW,199,4.4,7.5,39,0.00,,-RA,0.00,VWS V14.00,2013-04-15 05:22:00,
2013-04-15 01:27:00,60.7,36.9,30.06,SSW,194,6.4,7.5,41,0.00,,-RA,0.00,VWS V14.00,2013-04-15 05:27:00,
2013-04-15 01:32:00,60.1,38.2,30.06,South,179,3.9,6.4,44,0.00,,-RA,0.00,VWS V14.00,2013-04-15 05:32:00,
2013-04-15 01:37:00,59.6,39.3,30.06,South,181,5.9,9.1,47,0.00,,-RA,0.00,VWS V14.00,2013-04-15 05:37:00,
2013-04-15 01:42:00,58.8,40.3,30.06,South,185,4.9,8.6,50,0.00,,-RA,0.00,VWS V14.00,2013-04-15 05:42:00,
2013-04-15 01:47:00,58.3,41.2,30.09,WSW,240,5.9,6.4,53,0.00,,-RA,0.00,VWS V14.00,2013-04-15 05:47:00,
2013-04-15 01:52:00,57.7,41.7,30.09,SSW,202,3.0,7.5,55,0.00,,-RA,0.00,VWS V14.00,2013-04-15 05:52:00,
2013-04-15 01:57:00,57.4,42.7,30.09,South,187,3.9,4.3,58,0.00,,-RA,0.00,VWS V14.00,2013-04-15 05:57:00,
2013-04-15 02:02:00,57.2,42.5,30.09,South,186,0.0,3.8,58,0.00,,-RA,0.00,VWS V14.00,2013-04-15 06:02:00,
2013-04-15 02:07:00,57.0,42.8,30.09,SSE,155,0.0,0.0,59,0.00,,-RA,0.00,VWS V14.00,2013-04-15 06:07:00,
2013-04-15 02:13:00,56.8,43.1,30.09,SE,143,2.5,3.2,60,0.00,,-RA,0.00,VWS V14.00,2013-04-15 06:13:00,
2013-04-15 02:18:00,56.4,44.0,30.09,SSE,147,2.5,3.2,63,0.00,,-RA,0.00,VWS V14.00,2013-04-15 06:18:00,
2013-04-15 02:23:00,56.2,44.2,30.09,SSE,162,0.0,0.0,64,0.00,,-RA,0.00,VWS V14.00,2013-04-15 06:23:00,
2013-04-15 02:28:00,55.9,44.7,30.09,SE,139,3.0,3.2,66,0.01,,-RA,0.01,VWS V14.00,2013-04-15 06:28:00,
2013-04-15 02:33:00,55.5,44.7,30.09,South,189,0.0,0.0,67,0.01,,-RA,0.01,VWS V14.00,2013-04-15 06:33:00,
2013-04-15 02:38:00,55.3,45.0,30.09,SSW,202,5.4,6.4,68,0.02,,-RA,0.02,VWS V14.00,2013-04-15 06:38:00,
2013-04-15 02:43:00,55.1,45.2,30.09,SSW,195,0.0,0.0,69,0.02,,-RA,0.02,VWS V14.00,2013-04-15 06:43:00,
2013-04-15 02:48:00,55.0,45.0,30.09,South,179,0.0,0.0,69,0.03,,-RA,0.03,VWS V14.00,2013-04-15 06:48:00,
2013-04-15 02:53:00,54.8,45.6,30.09,South,179,0.0,0.0,71,0.03,,-RA,0.03,VWS V14.00,2013-04-15 06:53:00,
2013-04-15 02:58:00,54.6,45.8,30.09,South,179,0.0,0.0,72,0.04,,-RA,0.04,VWS V14.00,2013-04-15 06:58:00,
2013-04-15 03:03:00,54.4,45.9,30.09,South,179,0.0,0.0,73,0.05,,-RA,0.05,VWS V14.00,2013-04-15 07:03:00,
2013-04-15 03:41:00,53.7,46.6,30.09,South,182,0.0,0.0,77,0.06,,-RA,0.08,VWS V14.00,2013-04-15 07:41:00,
2013-04-15 03:42:00,53.5,46.5,30.09,South,182,0.0,0.0,77,0.06,,-RA,0.08,VWS V14.00,2013-04-15 07:42:00,
2013-04-15 03:47:00,53.7,46.6,30.06,South,182,0.0,0.0,77,0.06,,-RA,0.08,VWS V14.00,2013-04-15 07:47:00,
2013-04-15 03:48:00,53.7,46.6,30.06,South,182,0.0,0.0,77,0.05,,-RA,0.08,VWS V14.00,2013-04-15 07:48:00,
2013-04-15 03:49:00,53.7,46.6,30.06,South,182,0.0,0.0,77,0.05,,-RA,0.08,VWS V14.00,2013-04-15 07:49:00,
2013-04-15 03:54:00,53.5,46.8,30.06,South,182,0.0,0.0,78,0.06,,-RA,0.09,VWS V14.00,2013-04-15 07:54:00,
2013-04-15 03:59:00,53.3,46.9,30.06,South,182,0.0,0.0,79,0.05,,-RA,0.09,VWS V14.00,2013-04-15 07:59:00,
2013-04-15 04:04:00,53.1,46.8,30.06,South,182,0.0,0.0,79,0.05,,RA,0.10,VWS V14.00,2013-04-15 08:04:00,
2013-04-15 04:09:00,53.1,46.8,30.06,South,182,0.0,0.0,79,0.05,,RA,0.10,VWS V14.00,2013-04-15 08:09:00,
2013-04-15 04:14:00,52.9,46.9,30.06,East,83,3.0,3.2,80,0.04,,RA,0.10,VWS V14.00,2013-04-15 08:14:00,
2013-04-15 04:19:00,53.1,47.1,30.06,ENE,78,0.0,0.0,80,0.04,,RA,0.10,VWS V14.00,2013-04-15 08:19:00,
2013-04-15 04:25:00,52.5,47.2,30.06,North,353,2.5,2.7,82,0.04,,RA,0.11,VWS V14.00,2013-04-15 08:25:00,
2013-04-15 04:30:00,52.7,47.4,30.06,North,353,0.0,0.0,82,0.04,,RA,0.11,VWS V14.00,2013-04-15 08:30:00,
2013-04-15 04:35:00,52.9,47.2,30.09,North,353,0.0,0.0,81,0.03,,RA,0.11,VWS V14.00,2013-04-15 08:35:00,
2013-04-15 04:37:00,52.9,47.2,30.09,North,353,0.0,0.0,81,0.03,,RA,0.11,VWS V14.00,2013-04-15 08:37:00,
2013-04-15 04:40:00,52.7,47.1,30.09,North,353,0.0,0.0,81,0.05,,RA,0.13,VWS V14.00,2013-04-15 08:40:00,
2013-04-15 04:42:00,52.7,46.7,30.09,North,357,2.5,2.7,80,0.05,,RA,0.13,VWS V14.00,2013-04-15 08:42:00,
2013-04-15 04:47:00,52.7,46.7,30.09,North,357,0.0,0.0,80,0.06,,RA,0.14,VWS V14.00,2013-04-15 08:47:00,
2013-04-15 04:52:00,52.7,46.7,30.09,North,357,0.0,0.0,80,0.05,,RA,0.14,VWS V14.00,2013-04-15 08:52:00,
2013-04-15 04:57:00,52.5,46.9,30.09,SSE,147,0.0,2.7,81,0.06,,RA,0.15,VWS V14.00,2013-04-15 08:57:00,
2013-04-15 05:02:00,52.7,46.7,30.09,SSE,147,0.0,0.0,80,0.06,,-RA,0.15,VWS V14.00,2013-04-15 09:02:00,
2013-04-15 05:07:00,52.5,46.9,30.09,SSE,147,0.0,0.0,81,0.06,,-RA,0.16,VWS V14.00,2013-04-15 09:07:00,
2013-04-15 05:12:00,52.5,46.9,30.09,SSE,166,3.4,7.5,81,0.06,,-RA,0.16,VWS V14.00,2013-04-15 09:12:00,
2013-04-15 05:17:00,52.5,47.2,30.09,South,187,2.5,2.7,82,0.06,,-RA,0.16,VWS V14.00,2013-04-15 09:17:00,
2013-04-15 05:22:00,52.3,47.3,30.09,SW,234,0.0,0.0,83,0.06,,-RA,0.17,VWS V14.00,2013-04-15 09:22:00,
2013-04-15 05:27:00,52.2,47.2,30.09,East,101,0.0,0.0,83,0.06,,-RA,0.17,VWS V14.00,2013-04-15 09:27:00,
2013-04-15 05:32:00,52.2,47.2,30.09,South,181,3.0,3.2,83,0.07,,-RA,0.18,VWS V14.00,2013-04-15 09:32:00,
2013-04-15 05:37:00,52.2,46.8,30.09,South,174,3.0,3.2,82,0.07,,-RA,0.18,VWS V14.00,2013-04-15 09:37:00,
2013-04-15 05:42:00,52.2,46.8,30.09,ESE,105,0.0,0.0,82,0.05,,-RA,0.18,VWS V14.00,2013-04-15 09:42:00,
2013-04-15 05:47:00,52.0,46.3,30.09,SE,137,0.0,3.2,81,0.04,,-RA,0.18,VWS V14.00,2013-04-15 09:47:00,
2013-04-15 05:52:00,52.0,46.3,30.09,SSE,153,0.0,0.0,81,0.05,,-RA,0.19,VWS V14.00,2013-04-15 09:52:00,
2013-04-15 05:57:00,51.8,46.5,30.09,ESE,118,2.5,3.2,82,0.04,,-RA,0.19,VWS V14.00,2013-04-15 09:57:00,
2013-04-15 06:02:00,51.8,46.2,30.09,ESE,118,0.0,0.0,81,0.05,,-RA,0.20,VWS V14.00,2013-04-15 10:02:00,
2013-04-15 06:07:00,51.6,46.0,30.09,ESE,118,0.0,0.0,81,0.05,,-RA,0.20,VWS V14.00,2013-04-15 10:07:00,
2013-04-15 06:12:00,51.4,46.4,30.09,ESE,117,0.0,0.0,83,0.05,,-RA,0.21,VWS V14.00,2013-04-15 10:12:00,
2013-04-15 06:17:00,51.2,46.3,30.09,ESE,118,2.5,2.7,83,0.05,,-RA,0.21,VWS V14.00,2013-04-15 10:17:00,
2013-04-15 06:23:00,50.9,46.2,30.09,NNW,343,3.0,4.3,84,0.04,,-RA,0.21,VWS V14.00,2013-04-15 10:23:00,
2013-04-15 06:28:00,50.7,46.7,30.09,NNW,327,3.9,5.9,86,0.05,,-RA,0.22,VWS V14.00,2013-04-15 10:28:00,
2013-04-15 06:33:00,50.7,46.7,30.09,NNW,337,3.0,3.2,86,0.04,,-RA,0.22,VWS V14.00,2013-04-15 10:33:00,
2013-04-15 06:38:00,50.7,47.0,30.09,NE,38,0.0,0.0,87,0.04,,-RA,0.22,VWS V14.00,2013-04-15 10:38:00,
2013-04-15 06:43:00,50.7,47.0,30.09,North,353,2.5,4.8,87,0.05,,-RA,0.23,VWS V14.00,2013-04-15 10:43:00,
2013-04-15 06:48:00,50.5,46.8,30.09,North,353,2.5,2.7,87,0.05,,-RA,0.23,VWS V14.00,2013-04-15 10:48:00,
2013-04-15 06:53:00,50.5,47.1,30.09,North,353,0.0,4.3,88,0.04,,-RA,0.23,VWS V14.00,2013-04-15 10:53:00,
2013-04-15 06:58:00,50.7,47.3,30.09,SE,129,3.0,3.2,88,0.04,,-RA,0.24,VWS V14.00,2013-04-15 10:58:00,
2013-04-15 07:03:00,50.7,47.0,30.09,SE,125,0.0,0.0,87,0.04,,OVC047,0.24,VWS V14.00,2013-04-15 11:03:00,
2013-04-15 07:08:00,50.7,46.7,30.09,SE,125,0.0,0.0,86,0.05,,OVC047,0.25,VWS V14.00,2013-04-15 11:08:00,
2013-04-15 07:13:00,50.7,46.7,30.09,SE,126,0.0,0.0,86,0.06,,OVC047,0.26,VWS V14.00,2013-04-15 11:13:00,
2013-04-15 07:19:00,50.7,46.7,30.09,SE,126,0.0,0.0,86,0.05,,OVC047,0.26,VWS V14.00,2013-04-15 11:19:00,
2013-04-15 07:24:00,50.7,47.3,30.09,SE,125,0.0,0.0,88,0.05,,OVC047,0.26,VWS V14.00,2013-04-15 11:24:00,
2013-04-15 07:29:00,50.7,47.3,30.09,SE,126,0.0,0.0,88,0.05,,OVC047,0.27,VWS V14.00,2013-04-15 11:29:00,
2013-04-15 07:34:00,50.7,47.6,30.09,SE,125,0.0,0.0,89,0.05,,OVC047,0.27,VWS V14.00,2013-04-15 11:34:00,
2013-04-15 07:39:00,50.9,47.8,30.09,SE,126,0.0,0.0,89,0.05,,OVC047,0.27,VWS V14.00,2013-04-15 11:39:00,
2013-04-15 07:44:00,50.7,47.9,30.09,SE,125,0.0,0.0,90,0.05,,OVC047,0.28,VWS V14.00,2013-04-15 11:44:00,
2013-04-15 07:49:00,50.7,47.9,30.12,SE,125,0.0,0.0,90,0.05,,OVC047,0.28,VWS V14.00,2013-04-15 11:49:00,
2013-04-15 07:54:00,50.9,48.0,30.12,SE,125,3.0,3.2,90,0.05,,OVC047,0.28,VWS V14.00,2013-04-15 11:54:00,
2013-04-15 07:59:00,50.7,47.9,30.12,NW,310,0.0,2.7,90,0.05,,OVC047,0.29,VWS V14.00,2013-04-15 11:59:00,
2013-04-15 08:04:00,50.5,48.3,30.12,NW,325,4.4,4.8,92,0.05,,OVC048,0.29,VWS V14.00,2013-04-15 12:04:00,
2013-04-15 08:09:00,50.5,48.3,30.12,NW,326,0.0,0.0,92,0.04,,OVC048,0.29,VWS V14.00,2013-04-15 12:09:00,
2013-04-15 08:14:00,50.7,48.5,30.12,NW,326,0.0,0.0,92,0.04,,OVC048,0.30,VWS V14.00,2013-04-15 12:14:00,
2013-04-15 08:19:00,50.9,48.6,30.12,NW,326,0.0,0.0,92,0.04,,OVC048,0.30,VWS V14.00,2013-04-15 12:19:00,
2013-04-15 08:25:00,50.9,48.6,30.12,NW,326,0.0,0.0,92,0.05,,OVC048,0.31,VWS V14.00,2013-04-15 12:25:00,
2013-04-15 08:30:00,50.9,48.3,30.12,NW,326,0.0,0.0,91,0.06,,OVC048,0.32,VWS V14.00,2013-04-15 12:30:00,
2013-04-15 08:35:00,50.9,48.3,30.12,NW,326,0.0,0.0,91,0.06,,OVC048,0.32,VWS V14.00,2013-04-15 12:35:00,
2013-04-15 08:40:00,51.1,48.5,30.12,NW,326,0.0,0.0,91,0.07,,OVC048,0.33,VWS V14.00,2013-04-15 12:40:00,
2013-04-15 08:45:00,51.1,48.5,30.12,NW,326,0.0,0.0,91,0.07,,OVC048,0.34,VWS V14.00,2013-04-15 12:45:00,
2013-04-15 08:50:00,50.9,48.3,30.12,NW,326,0.0,0.0,91,0.08,,OVC048,0.35,VWS V14.00,2013-04-15 12:50:00,
2013-04-15 08:55:00,50.9,48.0,30.12,NW,326,0.0,0.0,90,0.08,,OVC048,0.35,VWS V14.00,2013-04-15 12:55:00,
2013-04-15 09:01:00,50.9,48.3,30.12,North,353,0.0,0.0,91,0.08,,OVC048,0.36,VWS V14.00,2013-04-15 13:01:00,
2013-04-15 09:06:00,50.9,48.3,30.12,North,357,0.0,0.0,91,0.09,,-RA,0.37,VWS V14.00,2013-04-15 13:06:00,
2013-04-15 09:12:00,51.1,48.5,30.12,North,357,0.0,0.0,91,0.09,,-RA,0.37,VWS V14.00,2013-04-15 13:12:00,
2013-04-15 09:17:00,50.9,48.3,30.12,North,357,0.0,0.0,91,0.09,,-RA,0.38,VWS V14.00,2013-04-15 13:17:00,
2013-04-15 09:22:00,51.1,48.5,30.12,North,357,0.0,0.0,91,0.10,,-RA,0.39,VWS V14.00,2013-04-15 13:22:00,
2013-04-15 09:27:00,51.1,48.8,30.12,North,357,0.0,0.0,92,0.09,,-RA,0.39,VWS V14.00,2013-04-15 13:27:00,
2013-04-15 09:32:00,51.1,48.8,30.12,North,0,0.0,0.0,92,0.08,,-RA,0.40,VWS V14.00,2013-04-15 13:32:00,
2013-04-15 09:37:00,51.1,48.8,30.12,North,357,0.0,0.0,92,0.08,,-RA,0.40,VWS V14.00,2013-04-15 13:37:00,
2013-04-15 09:42:00,51.1,48.5,30.12,North,0,0.0,0.0,91,0.09,,-RA,0.42,VWS V14.00,2013-04-15 13:42:00,
2013-04-15 09:47:00,51.1,48.5,30.12,NNE,29,0.0,0.0,91,0.08,,-RA,0.42,VWS V14.00,2013-04-15 13:47:00,
2013-04-15 09:52:00,51.1,48.5,30.12,NNE,29,0.0,0.0,91,0.07,,-RA,0.42,VWS V14.00,2013-04-15 13:52:00,
2013-04-15 09:57:00,51.2,48.7,30.12,NNE,23,0.0,0.0,91,0.07,,-RA,0.43,VWS V14.00,2013-04-15 13:57:00,
2013-04-15 10:02:00,51.2,49.0,30.12,NNE,23,0.0,0.0,92,0.07,,-RA,0.43,VWS V14.00,2013-04-15 14:02:00,
2013-04-15 10:07:00,51.2,49.0,30.12,NE,42,3.0,3.2,92,0.06,,-RA,0.43,VWS V14.00,2013-04-15 14:07:00,
2013-04-15 10:13:00,51.2,49.0,30.12,NE,43,0.0,0.0,92,0.06,,-RA,0.43,VWS V14.00,2013-04-15 14:13:00,
2013-04-15 10:18:00,51.2,49.0,30.12,NE,43,0.0,0.0,92,0.05,,-RA,0.43,VWS V14.00,2013-04-15 14:18:00,
2013-04-15 10:23:00,51.2,49.0,30.12,NE,43,0.0,0.0,92,0.04,,-RA,0.43,VWS V14.00,2013-04-15 14:23:00,
2013-04-15 10:28:00,51.2,49.0,30.12,NE,43,0.0,0.0,92,0.05,,-RA,0.44,VWS V14.00,2013-04-15 14:28:00,
2013-04-15 10:33:00,51.4,49.2,30.15,NE,43,0.0,0.0,92,0.04,,-RA,0.44,VWS V14.00,2013-04-15 14:33:00,
2013-04-15 10:38:00,51.4,49.2,30.15,NE,43,0.0,0.0,92,0.04,,-RA,0.44,VWS V14.00,2013-04-15 14:38:00,
2013-04-15 10:43:00,51.4,49.2,30.15,NE,43,0.0,0.0,92,0.02,,-RA,0.44,VWS V14.00,2013-04-15 14:43:00,
2013-04-15 10:48:00,51.4,49.2,30.15,NE,43,0.0,0.0,92,0.02,,-RA,0.44,VWS V14.00,2013-04-15 14:48:00,
2013-04-15 10:53:00,51.6,49.4,30.15,NE,43,0.0,0.0,92,0.02,,-RA,0.44,VWS V14.00,2013-04-15 14:53:00,
2013-04-15 10:59:00,51.4,49.5,30.15,North,6,0.0,0.0,93,0.01,,-RA,0.44,VWS V14.00,2013-04-15 14:59:00,
2013-04-15 11:04:00,51.6,49.7,30.15,North,6,0.0,0.0,93,0.01,,OVC038,0.44,VWS V14.00,2013-04-15 15:04:00,
2013-04-15 11:09:00,51.6,49.7,30.15,North,6,0.0,0.0,93,0.02,,OVC038,0.45,VWS V14.00,2013-04-15 15:09:00,
2013-04-15 11:14:00,51.8,49.8,30.15,North,6,0.0,0.0,93,0.02,,OVC038,0.45,VWS V14.00,2013-04-15 15:14:00,
2013-04-15 11:19:00,51.6,49.7,30.15,North,357,0.0,3.2,93,0.02,,OVC038,0.45,VWS V14.00,2013-04-15 15:19:00,
2013-04-15 11:24:00,51.8,49.8,30.15,North,357,0.0,0.0,93,0.02,,OVC038,0.45,VWS V14.00,2013-04-15 15:24:00,
2013-04-15 11:29:00,51.8,50.1,30.15,North,357,0.0,0.0,94,0.01,,OVC038,0.45,VWS V14.00,2013-04-15 15:29:00,
2013-04-15 11:34:00,51.8,50.1,30.15,NNW,333,0.0,3.8,94,0.02,,OVC038,0.46,VWS V14.00,2013-04-15 15:34:00,
2013-04-15 11:39:00,52.0,50.3,30.15,NNW,333,0.0,0.0,94,0.02,,OVC038,0.46,VWS V14.00,2013-04-15 15:39:00,
2013-04-15 11:44:00,52.0,50.3,30.15,North,349,0.0,0.0,94,0.02,,OVC038,0.46,VWS V14.00,2013-04-15 15:44:00,
2013-04-15 11:49:00,52.0,50.0,30.15,East,80,0.0,0.0,93,0.02,,OVC038,0.46,VWS V14.00,2013-04-15 15:49:00,
2013-04-15 11:54:00,52.0,50.0,30.15,NE,47,0.0,0.0,93,0.02,,OVC038,0.46,VWS V14.00,2013-04-15 15:54:00,
2013-04-15 11:59:00,52.0,50.0,30.15,NNE,20,0.0,0.0,93,0.02,,OVC038,0.46,VWS V14.00,2013-04-15 15:59:00,
2013-04-15 12:05:00,52.2,50.2,30.15,NNE,20,0.0,0.0,93,0.02,,OVC038,0.46,VWS V14.00,2013-04-15 16:05:00,
2013-04-15 12:10:00,52.0,49.7,30.15,NNE,20,0.0,0.0,92,0.01,,OVC038,0.46,VWS V14.00,2013-04-15 16:10:00,
2013-04-15 12:15:00,52.0,49.7,30.15,NNE,20,0.0,0.0,92,0.01,,OVC038,0.46,VWS V14.00,2013-04-15 16:15:00,
2013-04-15 12:20:00,51.8,49.8,30.15,NNW,340,0.0,2.7,93,0.01,,OVC038,0.46,VWS V14.00,2013-04-15 16:20:00,
2013-04-15 12:25:00,52.0,50.0,30.15,NNW,330,0.0,2.7,93,0.02,,OVC038,0.47,VWS V14.00,2013-04-15 16:25:00,
2013-04-15 12:30:00,51.8,49.8,30.15,NNW,329,3.0,3.8,93,0.02,,OVC038,0.47,VWS V14.00,2013-04-15 16:30:00,
2013-04-15 12:35:00,51.8,50.1,30.15,NW,324,0.0,3.2,94,0.01,,OVC038,0.47,VWS V14.00,2013-04-15 16:35:00,
2013-04-15 12:40:00,52.0,50.3,30.15,NW,324,0.0,0.0,94,0.01,,OVC038,0.47,VWS V14.00,2013-04-15 16:40:00,
2013-04-15 12:45:00,52.0,50.3,30.15,NNW,328,2.5,2.7,94,0.01,,OVC036,0.47,VWS V14.00,2013-04-15 16:45:00,
2013-04-15 12:51:00,52.0,50.3,30.15,NW,313,3.4,3.8,94,0.01,,OVC036,0.47,VWS V14.00,2013-04-15 16:51:00,
2013-04-15 12:56:00,52.0,50.3,30.15,NNW,344,0.0,0.0,94,0.01,,OVC036,0.47,VWS V14.00,2013-04-15 16:56:00,
2013-04-15 13:01:00,52.2,50.5,30.15,NE,36,0.0,0.0,94,0.02,,OVC013,0.48,VWS V14.00,2013-04-15 17:01:00,
2013-04-15 13:06:00,52.2,50.5,30.15,NNW,341,0.0,0.0,94,0.02,,OVC013,0.48,VWS V14.00,2013-04-15 17:06:00,
2013-04-15 13:11:00,52.3,50.7,30.15,North,350,0.0,0.0,94,0.02,,OVC013,0.48,VWS V14.00,2013-04-15 17:11:00,
2013-04-15 13:17:00,52.2,50.5,30.15,North,353,0.0,0.0,94,0.02,,OVC013,0.48,VWS V14.00,2013-04-15 17:17:00,
2013-04-15 13:21:00,52.3,50.7,30.15,NNW,338,0.0,0.0,94,0.02,,OVC013,0.48,VWS V14.00,2013-04-15 17:21:00,
2013-04-15 13:22:00,52.5,50.9,30.15,NNW,338,0.0,0.0,94,0.02,,OVC013,0.48,VWS V14.00,2013-04-15 17:22:00,
2013-04-15 13:27:00,52.5,50.9,30.15,NNW,338,0.0,0.0,94,0.01,,OVC013,0.48,VWS V14.00,2013-04-15 17:27:00,
2013-04-15 13:32:00,52.7,51.0,30.15,North,5,0.0,0.0,94,0.01,,OVC013,0.48,VWS V14.00,2013-04-15 17:32:00,
2013-04-15 13:37:00,52.7,51.0,30.15,North,5,0.0,0.0,94,0.01,,OVC013,0.48,VWS V14.00,2013-04-15 17:37:00,
2013-04-15 13:42:00,52.9,51.2,30.15,NNW,337,0.0,2.7,94,0.01,,OVC013,0.48,VWS V14.00,2013-04-15 17:42:00,
2013-04-15 13:47:00,52.7,50.8,30.15,NW,322,0.0,0.0,93,0.01,,OVC034,0.48,VWS V14.00,2013-04-15 17:47:00,
2013-04-15 13:52:00,52.7,50.8,30.15,NNW,339,0.0,0.0,93,0.01,,OVC034,0.48,VWS V14.00,2013-04-15 17:52:00,
2013-04-15 13:57:00,52.7,50.8,30.15,NNW,339,0.0,0.0,93,0.01,,OVC034,0.48,VWS V14.00,2013-04-15 17:57:00,
2013-04-15 14:02:00,52.9,50.7,30.15,NNW,339,0.0,0.0,92,0.00,,OVC036,0.48,VWS V14.00,2013-04-15 18:02:00,
2013-04-15 14:07:00,52.9,50.7,30.15,NNW,339,0.0,0.0,92,0.00,,OVC036,0.48,VWS V14.00,2013-04-15 18:07:00,
2013-04-15 14:12:00,52.9,50.4,30.15,NNW,339,0.0,0.0,91,0.00,,OVC036,0.48,VWS V14.00,2013-04-15 18:12:00,
2013-04-15 14:17:00,52.9,50.7,30.15,NNW,339,0.0,0.0,92,0.00,,OVC036,0.48,VWS V14.00,2013-04-15 18:17:00,
2013-04-15 14:22:00,52.9,50.7,30.15,NNW,339,0.0,0.0,92,0.00,,OVC036,0.48,VWS V14.00,2013-04-15 18:22:00,
2013-04-15 14:27:00,53.1,50.8,30.15,NNW,339,0.0,0.0,92,0.00,,OVC036,0.48,VWS V14.00,2013-04-15 18:27:00,
2013-04-15 14:29:00,53.3,51.0,30.15,NNW,339,0.0,0.0,92,0.00,,OVC036,0.48,VWS V14.00,2013-04-15 18:29:00,
2013-04-15 14:30:00,53.3,50.7,30.15,NNW,339,0.0,0.0,91,0.00,,OVC036,0.48,VWS V14.00,2013-04-15 18:30:00,
2013-04-15 14:35:00,53.7,51.1,30.15,North,353,0.0,0.0,91,0.00,,OVC038,0.48,VWS V14.00,2013-04-15 18:35:00,
2013-04-15 14:40:00,53.7,51.1,30.15,North,353,0.0,0.0,91,0.00,,OVC038,0.48,VWS V14.00,2013-04-15 18:40:00,
2013-04-15 14:45:00,53.7,51.1,30.15,North,353,0.0,0.0,91,0.00,,OVC038,0.48,VWS V14.00,2013-04-15 18:45:00,
2013-04-15 14:50:00,54.0,51.2,30.15,North,6,0.0,0.0,90,0.00,,OVC038,0.48,VWS V14.00,2013-04-15 18:50:00,
2013-04-15 14:55:00,54.0,51.2,30.15,North,6,0.0,0.0,90,0.00,,OVC038,0.48,VWS V14.00,2013-04-15 18:55:00,
2013-04-15 15:00:00,54.0,50.9,30.15,North,6,0.0,0.0,89,0.00,,OVC038,0.48,VWS V14.00,2013-04-15 19:00:00,
2013-04-15 15:05:00,54.0,50.9,30.15,North,6,0.0,0.0,89,0.00,,OVC036,0.48,VWS V14.00,2013-04-15 19:05:00,
2013-04-15 15:10:00,54.0,50.5,30.15,North,6,0.0,0.0,88,0.00,,OVC036,0.48,VWS V14.00,2013-04-15 19:10:00,
2013-04-15 15:15:00,54.2,50.7,30.15,North,353,0.0,0.0,88,0.00,,OVC036,0.48,VWS V14.00,2013-04-15 19:15:00,
2013-04-15 15:20:00,54.2,50.7,30.15,ENE,64,0.0,0.0,88,0.00,,OVC036,0.48,VWS V14.00,2013-04-15 19:20:00,
2013-04-15 15:25:00,54.0,50.5,30.15,NNE,17,3.0,3.2,88,0.00,,OVC036,0.48,VWS V14.00,2013-04-15 19:25:00,
2013-04-15 15:30:00,54.2,50.7,30.15,NNE,17,0.0,0.0,88,0.00,,OVC036,0.48,VWS V14.00,2013-04-15 19:30:00,
2013-04-15 15:36:00,54.2,50.7,30.15,NNE,31,0.0,0.0,88,0.00,,OVC036,0.48,VWS V14.00,2013-04-15 19:36:00,
2013-04-15 15:41:00,54.8,51.3,30.15,North,353,0.0,0.0,88,0.00,,OVC036,0.48,VWS V14.00,2013-04-15 19:41:00,
2013-04-15 15:46:00,55.1,51.7,30.15,North,7,0.0,0.0,88,0.00,,OVC036,0.48,VWS V14.00,2013-04-15 19:46:00,
2013-04-15 15:51:00,55.1,51.3,30.15,NNE,14,0.0,0.0,87,0.00,,OVC036,0.48,VWS V14.00,2013-04-15 19:51:00,
2013-04-15 15:56:00,55.3,51.2,30.15,NNE,29,0.0,0.0,86,0.00,,OVC036,0.48,VWS V14.00,2013-04-15 19:56:00,
2013-04-15 15:58:00,55.5,51.1,30.15,East,97,0.0,0.0,85,0.00,,OVC036,0.48,VWS V14.00,2013-04-15 19:58:00,
2013-04-15 15:59:00,55.7,51.3,30.15,East,97,0.0,0.0,85,0.00,,OVC036,0.48,VWS V14.00,2013-04-15 19:59:00,
2013-04-15 16:01:00,55.7,51.3,30.15,East,97,0.0,0.0,85,0.00,,OVC017,0.48,VWS V14.00,2013-04-15 20:01:00,
2013-04-15 16:02:00,55.7,51.3,30.15,East,97,0.0,0.0,85,0.00,,OVC017,0.48,VWS V14.00,2013-04-15 20:02:00,
2013-04-15 16:03:00,55.7,51.3,30.15,East,97,0.0,0.0,85,0.00,,OVC017,0.48,VWS V14.00,2013-04-15 20:03:00,
2013-04-15 16:04:00,55.7,50.9,30.15,East,97,0.0,0.0,84,0.00,,OVC017,0.48,VWS V14.00,2013-04-15 20:04:00,
2013-04-15 16:09:00,55.9,50.8,30.15,North,1,0.0,0.0,83,0.00,,OVC017,0.48,VWS V14.00,2013-04-15 20:09:00,
2013-04-15 16:15:00,55.9,50.8,30.15,NNE,12,0.0,0.0,83,0.00,,OVC017,0.48,VWS V14.00,2013-04-15 20:15:00,
2013-04-15 16:20:00,56.2,51.2,30.12,NNW,342,0.0,3.2,83,0.00,,OVC017,0.48,VWS V14.00,2013-04-15 20:20:00,
2013-04-15 16:25:00,56.4,51.0,30.12,NNW,342,0.0,0.0,82,0.00,,OVC017,0.48,VWS V14.00,2013-04-15 20:25:00,
2013-04-15 16:30:00,56.4,51.0,30.12,NNW,341,4.4,4.8,82,0.00,,OVC017,0.48,VWS V14.00,2013-04-15 20:30:00,
2013-04-15 16:35:00,56.4,50.7,30.15,North,357,0.0,2.7,81,0.00,,OVC017,0.48,VWS V14.00,2013-04-15 20:35:00,
2013-04-15 16:40:00,56.1,50.0,30.15,NNW,334,2.5,4.8,80,0.00,,OVC017,0.48,VWS V14.00,2013-04-15 20:40:00,
2013-04-15 16:45:00,56.4,50.7,30.15,NNW,343,0.0,0.0,81,0.00,,OVC017,0.48,VWS V14.00,2013-04-15 20:45:00,
2013-04-15 16:50:00,56.4,50.7,30.15,NE,41,0.0,0.0,81,0.00,,OVC017,0.48,VWS V14.00,2013-04-15 20:50:00,
2013-04-15 16:55:00,56.2,50.5,30.15,NE,56,0.0,2.7,81,0.00,,OVC017,0.48,VWS V14.00,2013-04-15 20:55:00,
2013-04-15 17:01:00,56.2,50.5,30.15,NE,56,0.0,0.0,81,0.00,,OVC017,0.48,VWS V14.00,2013-04-15 21:01:00,
2013-04-15 17:06:00,56.2,50.2,30.15,NE,56,0.0,0.0,80,0.00,,OVC019,0.48,VWS V14.00,2013-04-15 21:06:00,
2013-04-15 17:11:00,56.1,50.3,30.15,NE,56,0.0,0.0,81,0.00,,OVC019,0.48,VWS V14.00,2013-04-15 21:11:00,
2013-04-15 17:16:00,56.2,50.5,30.15,NNE,14,0.0,0.0,81,0.00,,OVC019,0.48,VWS V14.00,2013-04-15 21:16:00,
2013-04-15 17:21:00,56.1,50.3,30.15,ENE,58,0.0,0.0,81,0.00,,OVC019,0.48,VWS V14.00,2013-04-15 21:21:00,
2013-04-15 17:26:00,56.1,50.3,30.15,NE,34,0.0,0.0,81,0.00,,OVC019,0.48,VWS V14.00,2013-04-15 21:26:00,
2013-04-15 17:31:00,56.1,50.3,30.15,NE,34,0.0,0.0,81,0.00,,OVC019,0.48,VWS V14.00,2013-04-15 21:31:00,
2013-04-15 17:36:00,56.1,50.3,30.15,NE,34,0.0,0.0,81,0.00,,OVC019,0.48,VWS V14.00,2013-04-15 21:36:00,
2013-04-15 17:41:00,56.1,50.3,30.15,NE,34,0.0,0.0,81,0.00,,OVC019,0.48,VWS V14.00,2013-04-15 21:41:00,
2013-04-15 17:46:00,56.1,50.0,30.15,NE,34,0.0,0.0,80,0.00,,OVC019,0.48,VWS V14.00,2013-04-15 21:46:00,
2013-04-15 17:51:00,56.1,49.7,30.15,NE,34,0.0,0.0,79,0.00,,OVC019,0.48,VWS V14.00,2013-04-15 21:51:00,
2013-04-15 17:57:00,56.1,49.3,30.15,NE,34,0.0,0.0,78,0.00,,OVC019,0.48,VWS V14.00,2013-04-15 21:57:00,
2013-04-15 18:02:00,56.1,49.3,30.15,NE,34,0.0,0.0,78,0.00,,OVC045,0.48,VWS V14.00,2013-04-15 22:02:00,
2013-04-15 18:07:00,56.1,49.3,30.15,NE,34,0.0,0.0,78,0.00,,OVC045,0.48,VWS V14.00,2013-04-15 22:07:00,
2013-04-15 18:12:00,56.1,49.3,30.15,NE,34,0.0,0.0,78,0.00,,OVC045,0.48,VWS V14.00,2013-04-15 22:12:00,
2013-04-15 18:17:00,56.1,49.7,30.15,NE,34,0.0,0.0,79,0.00,,OVC045,0.48,VWS V14.00,2013-04-15 22:17:00,
2013-04-15 18:22:00,56.1,49.7,30.15,NE,34,0.0,0.0,79,0.00,,OVC045,0.48,VWS V14.00,2013-04-15 22:22:00,
2013-04-15 18:27:00,56.1,50.3,30.15,NE,34,0.0,0.0,81,0.00,,OVC045,0.48,VWS V14.00,2013-04-15 22:27:00,
2013-04-15 18:32:00,55.9,50.1,30.15,NE,34,0.0,0.0,81,0.00,,OVC045,0.48,VWS V14.00,2013-04-15 22:32:00,
2013-04-15 18:37:00,55.9,49.1,30.15,NE,34,0.0,0.0,78,0.00,,OVC045,0.48,VWS V14.00,2013-04-15 22:37:00,
2013-04-15 18:42:00,55.9,48.8,30.15,NE,34,0.0,0.0,77,0.00,,OVC045,0.48,VWS V14.00,2013-04-15 22:42:00,
2013-04-15 18:47:00,55.9,48.8,30.15,SE,125,0.0,2.7,77,0.00,,OVC045,0.48,VWS V14.00,2013-04-15 22:47:00,
2013-04-15 18:53:00,55.9,48.8,30.15,SE,135,0.0,0.0,77,0.00,,OVC045,0.48,VWS V14.00,2013-04-15 22:53:00,
2013-04-15 18:58:00,55.7,48.6,30.15,SE,135,0.0,0.0,77,0.00,,OVC045,0.48,VWS V14.00,2013-04-15 22:58:00,
2013-04-15 19:03:00,55.7,48.6,30.15,SE,135,0.0,0.0,77,0.00,,OVC023,0.48,VWS V14.00,2013-04-15 23:03:00,
2013-04-15 19:08:00,55.7,48.2,30.15,SE,135,0.0,0.0,76,0.00,,OVC023,0.48,VWS V14.00,2013-04-15 23:08:00,
2013-04-15 19:13:00,55.7,47.9,30.15,SSE,166,0.0,0.0,75,0.00,,OVC023,0.48,VWS V14.00,2013-04-15 23:13:00,
2013-04-15 19:18:00,55.7,47.9,30.15,SSE,166,0.0,0.0,75,0.00,,OVC023,0.48,VWS V14.00,2013-04-15 23:18:00,
2013-04-15 19:23:00,55.5,48.1,30.15,SSE,162,0.0,2.7,76,0.00,,OVC023,0.48,VWS V14.00,2013-04-15 23:23:00,
2013-04-15 19:28:00,55.5,48.4,30.15,South,178,0.0,0.0,77,0.00,,OVC023,0.48,VWS V14.00,2013-04-15 23:28:00,
2013-04-15 19:33:00,55.5,48.4,30.15,SSW,208,3.0,3.2,77,0.00,,OVC023,0.48,VWS V14.00,2013-04-15 23:33:00,
2013-04-15 19:38:00,55.3,48.2,30.15,ENE,73,0.0,3.2,77,0.00,,OVC023,0.48,VWS V14.00,2013-04-15 23:38:00,
2013-04-15 19:43:00,55.3,47.9,30.15,ENE,73,0.0,0.0,76,0.00,,OVC023,0.48,VWS V14.00,2013-04-15 23:43:00,
2013-04-15 19:48:00,55.3,48.2,30.15,South,171,0.0,2.7,77,0.00,,OVC023,0.48,VWS V14.00,2013-04-15 23:48:00,
2013-04-15 19:53:00,55.3,47.9,30.15,SE,136,0.0,0.0,76,0.00,,OVC023,0.48,VWS V14.00,2013-04-15 23:53:00,
2013-04-15 19:58:00,55.3,47.5,30.15,SE,136,0.0,0.0,75,0.00,,OVC023,0.48,VWS V14.00,2013-04-15 23:58:00,
2013-04-15 20:03:00,55.3,47.9,30.15,SE,136,0.0,0.0,76,0.00,,BKN015,0.48,VWS V14.00,2013-04-16 00:03:00,
2013-04-15 20:09:00,55.1,47.7,30.15,SE,136,0.0,0.0,76,0.00,,BKN015,0.48,VWS V14.00,2013-04-16 00:09:00,
2013-04-15 20:14:00,55.1,48.1,30.15,South,181,0.0,0.0,77,0.00,,BKN015,0.48,VWS V14.00,2013-04-16 00:14:00,
2013-04-15 20:19:00,55.1,47.7,30.15,NE,51,0.0,0.0,76,0.00,,BKN015,0.48,VWS V14.00,2013-04-16 00:19:00,
2013-04-15 20:24:00,55.1,48.1,30.15,NE,51,0.0,0.0,77,0.00,,BKN015,0.48,VWS V14.00,2013-04-16 00:24:00,
2013-04-15 20:29:00,55.1,48.1,30.15,NE,51,0.0,0.0,77,0.00,,BKN015,0.48,VWS V14.00,2013-04-16 00:29:00,
2013-04-15 20:34:00,55.1,48.1,30.18,NE,51,0.0,0.0,77,0.00,,BKN015,0.48,VWS V14.00,2013-04-16 00:34:00,
2013-04-15 20:39:00,55.1,48.1,30.18,SE,145,3.4,5.9,77,0.00,,BKN015,0.48,VWS V14.00,2013-04-16 00:39:00,
2013-04-15 20:44:00,55.1,48.1,30.18,SE,143,0.0,0.0,77,0.00,,BKN015,0.48,VWS V14.00,2013-04-16 00:44:00,
2013-04-15 20:49:00,55.1,48.1,30.18,South,170,0.0,0.0,77,0.00,,BKN015,0.48,VWS V14.00,2013-04-16 00:49:00,
2013-04-15 20:54:00,55.1,48.1,30.18,South,170,0.0,2.7,77,0.00,,BKN015,0.48,VWS V14.00,2013-04-16 00:54:00,
2013-04-15 20:59:00,55.0,47.9,30.18,South,170,0.0,0.0,77,0.00,,BKN015,0.48,VWS V14.00,2013-04-16 00:59:00,
2013-04-15 21:04:00,55.0,48.2,30.18,South,170,0.0,0.0,78,0.00,,OVC018,0.48,VWS V14.00,2013-04-16 01:04:00,
2013-04-15 21:09:00,55.0,48.2,30.18,South,170,0.0,0.0,78,0.00,,OVC018,0.48,VWS V14.00,2013-04-16 01:09:00,
2013-04-15 21:15:00,55.0,47.9,30.18,South,170,0.0,0.0,77,0.00,,OVC018,0.48,VWS V14.00,2013-04-16 01:15:00,
2013-04-15 21:20:00,55.0,47.9,30.18,South,170,0.0,0.0,77,0.00,,OVC018,0.48,VWS V14.00,2013-04-16 01:20:00,
2013-04-15 21:25:00,55.0,48.2,30.18,South,170,0.0,0.0,78,0.00,,OVC018,0.48,VWS V14.00,2013-04-16 01:25:00,
2013-04-15 21:30:00,55.0,48.2,30.18,SSW,208,0.0,0.0,78,0.00,,OVC018,0.48,VWS V14.00,2013-04-16 01:30:00,
2013-04-15 21:35:00,55.0,48.2,30.18,SSW,208,0.0,0.0,78,0.00,,OVC014,0.48,VWS V14.00,2013-04-16 01:35:00,
2013-04-15 21:40:00,55.0,48.2,30.18,NNW,327,0.0,0.0,78,0.00,,OVC014,0.48,VWS V14.00,2013-04-16 01:40:00,
2013-04-15 21:45:00,55.0,48.6,30.18,NNW,327,0.0,0.0,79,0.00,,OVC014,0.48,VWS V14.00,2013-04-16 01:45:00,
2013-04-15 21:50:00,55.0,48.6,30.18,NNW,327,0.0,0.0,79,0.00,,OVC014,0.48,VWS V14.00,2013-04-16 01:50:00,
2013-04-15 21:55:00,54.8,48.4,30.18,NNW,327,0.0,0.0,79,0.00,,OVC014,0.48,VWS V14.00,2013-04-16 01:55:00,
2013-04-15 22:00:00,54.8,48.4,30.18,NNW,327,0.0,0.0,79,0.00,,OVC014,0.48,VWS V14.00,2013-04-16 02:00:00,
2013-04-15 22:05:00,54.8,48.7,30.21,NW,311,0.0,0.0,80,0.00,,OVC014,0.48,VWS V14.00,2013-04-16 02:05:00,
2013-04-15 22:10:00,54.8,48.7,30.21,NW,311,0.0,0.0,80,0.00,,OVC014,0.48,VWS V14.00,2013-04-16 02:10:00,
2013-04-15 22:15:00,54.8,49.1,30.21,NW,311,0.0,0.0,81,0.00,,OVC014,0.48,VWS V14.00,2013-04-16 02:15:00,
2013-04-15 22:20:00,54.8,49.1,30.21,NW,311,0.0,0.0,81,0.00,,OVC014,0.48,VWS V14.00,2013-04-16 02:20:00,
2013-04-15 22:25:00,54.8,49.1,30.21,South,172,0.0,3.2,81,0.00,,OVC014,0.48,VWS V14.00,2013-04-16 02:25:00,
2013-04-15 22:30:00,54.6,49.2,30.21,South,172,0.0,0.0,82,0.00,,OVC014,0.48,VWS V14.00,2013-04-16 02:30:00,
2013-04-15 22:35:00,54.8,49.4,30.21,South,172,0.0,0.0,82,0.00,,OVC016,0.48,VWS V14.00,2013-04-16 02:35:00,
2013-04-15 22:41:00,54.8,49.1,30.21,South,172,0.0,0.0,81,0.00,,OVC016,0.48,VWS V14.00,2013-04-16 02:41:00,
2013-04-15 22:46:00,54.8,49.4,30.21,South,172,0.0,0.0,82,0.00,,OVC016,0.48,VWS V14.00,2013-04-16 02:46:00,
2013-04-15 22:51:00,54.6,49.5,30.21,South,172,0.0,0.0,83,0.00,,OVC016,0.48,VWS V14.00,2013-04-16 02:51:00,
2013-04-15 22:56:00,54.6,49.5,30.21,South,172,0.0,0.0,83,0.00,,OVC016,0.48,VWS V14.00,2013-04-16 02:56:00,
2013-04-15 23:01:00,54.6,49.5,30.21,South,172,0.0,0.0,83,0.00,,FEW014,0.48,VWS V14.00,2013-04-16 03:01:00,
2013-04-15 23:06:00,54.6,49.2,30.21,South,172,0.0,0.0,82,0.00,,FEW014,0.48,VWS V14.00,2013-04-16 03:06:00,
2013-04-15 23:11:00,54.6,49.2,30.21,South,172,0.0,0.0,82,0.00,,FEW014,0.48,VWS V14.00,2013-04-16 03:11:00,
2013-04-15 23:16:00,54.6,49.5,30.21,South,172,0.0,0.0,83,0.00,,FEW014,0.48,VWS V14.00,2013-04-16 03:16:00,
2013-04-15 23:21:00,54.6,49.8,30.21,South,172,0.0,0.0,84,0.00,,FEW014,0.48,VWS V14.00,2013-04-16 03:21:00,
2013-04-15 23:27:00,54.4,49.7,30.21,South,172,0.0,0.0,84,0.00,,FEW014,0.48,VWS V14.00,2013-04-16 03:27:00,
2013-04-15 23:32:00,54.6,49.8,30.21,South,172,0.0,0.0,84,0.00,,FEW014,0.48,VWS V14.00,2013-04-16 03:32:00,
2013-04-15 23:37:00,54.6,49.8,30.21,South,172,0.0,0.0,84,0.00,,FEW014,0.48,VWS V14.00,2013-04-16 03:37:00,
2013-04-15 23:42:00,54.6,49.8,30.21,South,172,0.0,0.0,84,0.00,,FEW014,0.48,VWS V14.00,2013-04-16 03:42:00,
2013-04-15 23:47:00,54.6,49.5,30.21,South,172,0.0,0.0,83,0.00,,FEW014,0.48,VWS V14.00,2013-04-16 03:47:00,
2013-04-15 23:52:00,54.6,49.5,30.21,South,172,0.0,0.0,83,0.00,,FEW014,0.48,VWS V14.00,2013-04-16 03:52:00,
2013-04-15 23:57:00,54.2,49.5,30.21,South,172,0.0,0.0,84,0.00,,FEW014,0.48,VWS V14.00,2013-04-16 03:57:00,